sat.trackr.live / text

‹ back to catalog

STARLINK-5931

NORAD 56785 · 2023-078U

PAYLOAD ACTIVE UNKNOWN

§ Identity

Operator
Country
US
Launch date
2023-05-31
Launch site
AFWTR
Launch vehicle
Mass (kg)
RCS (m²)

Purposes: comms

External: N2YO · Heavens-Above · Gunter

§ Orbital elements

Epoch: 2026-05-25T02:33:41.222304Z

Period
96.11 min
Inclination
69.9985°
Eccentricity
0.0003919
Mean motion
14.98330755 rev/d
Perigee alt
569.3 km
Apogee alt
574.8 km
Semi-major
6,950.2 km
B*
5.0679e-6
RAAN
151.9071°
Arg perigee
266.3306°
Mean anomaly
93.7404°
Rev number
16,481

§ Raw data

STARLINK-59311 56785U 23078U   26145.10672711 -.00000033  00000+0  50679-5 0  99922 56785  69.9985 151.9071 0003919 266.3306  93.7404 14.98330755164813

JSON: /api/v1/satellites/56785 · /tle

For live sub-satellite position, see the globe view (requires WebGL).

§ Visibility from observer

Set your observer location to see the next 7 days of passes ≥ 10°. The values pass through the URL so the page stays shareable.

No JS? Fill the form by hand. The geolocation button needs JavaScript.